GFSMA_sfc_temp_219.txt.gz
Temp
66 67 67 67 67 66 67 66 65 67 70 71 72 72 72 70 68 73 72 73 75 76 77 76 76 75 75 74 74 73 73 73 73 73 73 74 73 73 73 73 73 73 72
64 64 65 66 67 68 66 65 65 64 66 70 71 70 70 70 70 73 69 73 74 75 76 77 76 75 75 74 73 73 73 72 73 72 72 73 73 73 72 72 72 72 72
64 61 61 63 64 65 68 65 66 67 67 67 67 67 68 70 70 69 69 70 72 73 75 76 76 75 75 74 74 73 72 72 72 72 72 72 72 72 72 72 72 72 72
64 61 59 60 62 63 64 66 65 64 63 64 66 67 66 67 67 68 68 68 68 71 72 73 75 75 75 74 74 73 72 72 72 72 71 71 72 72 72 71 71 71 71
63 62 60 60 60 60 60 62 65 66 64 63 63 64 64 66 66 67 67 67 67 66 65 71 72 72 74 74 74 73 72 72 71 71 71 71 71 72 71 71 71 71 71
60 60 60 60 60 59 60 59 61 63 64 64 65 64 62 63 64 64 66 66 65 65 64 66 66 67 72 73 73 73 72 71 71 71 71 71 70 70 70 70 70 70 69
58 58 57 59 59 59 59 60 59 60 60 62 60 59 59 61 62 62 63 64 64 65 65 65 65 64 67 71 72 72 72 71 70 70 70 70 69 69 70 69 69 69 69
57 58 56 56 57 57 58 58 59 58 59 61 59 58 57 58 59 60 63 64 64 64 64 65 64 63 63 63 66 69 69 70 70 70 69 69 69 68 69 68 69 68 68
56 55 55 56 56 56 54 56 58 58 57 59 61 59 56 55 56 56 57 58 63 63 63 63 63 63 63 62 63 63 65 67 69 69 69 69 70 69 68 68 68 66 68
54 54 55 55 55 55 51 54 58 57 58 56 58 61 59 57 53 52 54 54 57 61 61 61 60 61 61 61 62 63 65 66 67 68 68 68 69 69 67 67 67 67 67
52 53 53 55 54 55 52 52 54 53 55 56 57 58 58 58 55 54 51 51 53 53 55 59 59 59 60 60 60 62 64 65 66 67 68 68 68 68 68 67 66 65 65
49 51 53 52 53 53 52 51 52 52 54 56 57 58 58 56 56 54 51 51 49 50 50 51 57 57 58 59 61 63 64 64 65 65 65 66 66 66 66 65 64 63 62
48 49 50 49 51 53 53 52 51 51 53 55 56 57 58 59 58 55 53 50 48 50 49 50 50 58 59 59 60 62 62 63 63 62 62 62 62 62 61 61 61 61 61
50 50 49 49 51 53 53 53 55 55 54 54 54 57 58 59 58 58 53 51 47 47 47 47 50 55 56 57 58 59 59 61 60 60 59 59 59 59 59 58 58 58 59
52 52 49 49 51 51 52 54 54 54 54 54 54 55 57 59 59 57 57 56 51 45 45 45 47 51 52 53 54 54 54 57 57 57 56 56 55 55 55 55 55 55 55
48 48 49 49 50 50 52 53 52 54 53 54 54 55 57 59 59 58 56 56 56 51 43 44 44 48 50 50 52 51 52 54 54 54 54 53 53 53 53 54 54 54 54
52 52 51 49 50 50 49 50 49 51 52 54 56 56 56 60 58 57 56 56 54 51 44 42 46 45 45 45 46 48 49 48 50 53 53 52 52 51 51 52 53 52 52
51 50 49 50 49 48 49 50 50 52 52 53 54 55 55 59 57 56 56 54 50 49 44 40 42 42 43 44 45 46 48 51 50 53 53 52 51 51 51 51 51 51 52
51 49 50 48 49 49 49 51 51 51 52 54 55 56 57 57 55 55 53 50 49 47 45 42 40 42 42 43 43 44 45 47 50 51 50 50 51 50 51 51 50 50 50
49 49 50 50 50 49 49 50 51 51 52 55 56 57 59 57 54 51 50 48 46 44 43 41 40 40 41 41 41 39 38 40 38 44 46 46 47 48 50 50 50 49 49
49 49 47 48 50 48 50 50 51 52 53 54 58 58 58 56 56 53 48 46 44 42 42 40 39 39 38 38 38 39 37 36 35 35 33 35 35 35 40 45 47 49 48
47 47 46 47 47 50 52 53 52 52 56 55 53 54 54 55 55 54 52 50 47 43 41 40 39 38 39 38 40 38 35 32 28 33 31 29 32 31 35 40 48 48 49
46 46 46 46 47 48 51 53 55 55 54 53 51 51 51 51 50 49 51 51 50 50 49 45 42 41 40 41 40 33 31 31 29 30 31 27 29 29 35 42 48 48 48
44 43 44 46 46 48 52 54 54 52 51 51 51 50 49 48 49 47 45 44 44 46 46 46 42 41 40 40 39 37 33 29 30 30 30 26 28 28 31 32 47 47 48
43 44 48 50 50 50 53 54 51 50 48 47 48 49 46 45 50 50 46 45 46 47 52 51 50 49 48 46 42 37 33 32 28 28 29 29 28 29 29 30 33 45 46
43 48 48 49 51 50 52 52 49 46 44 44 45 46 50 48 50 49 42 39 34 35 36 35 35 37 41 45 44 33 32 30 28 28 30 30 29 29 29 30 30 31 33

GFSMA_sfc_temp_222.txt.gz
Temp
60 61 62 63 65 67 67 66 66 67 67 68 69 70 70 68 67 70 71 73 75 76 77 77 76 75 75 74 74 73 73 73 73 72 73 73 73 73 72 72 73 72 73
59 59 59 60 63 63 65 67 65 65 64 66 69 69 68 69 68 67 68 71 73 75 77 77 76 76 75 75 74 73 73 73 72 72 72 72 72 72 72 72 72 72 72
59 56 56 57 58 60 62 63 66 66 66 65 65 68 69 68 68 68 67 68 71 73 74 76 76 76 76 75 74 73 73 72 72 72 71 71 71 72 72 71 72 72 71
58 57 57 56 57 57 58 59 62 63 64 64 64 65 65 66 67 68 67 67 68 70 73 74 75 76 76 75 74 73 73 72 72 71 71 71 71 71 71 71 71 71 71
57 55 55 56 56 56 56 57 59 60 60 62 62 64 63 64 65 67 66 66 67 68 68 72 73 74 74 75 75 74 73 72 72 71 71 71 70 71 70 70 70 70 70
55 53 54 53 55 55 53 55 56 58 59 61 63 63 62 62 63 64 65 65 65 65 65 67 70 69 72 74 74 74 73 72 72 71 71 71 70 70 70 70 70 69 69
54 52 51 52 53 53 52 53 55 55 57 59 60 59 61 62 62 63 65 64 64 64 65 65 65 65 69 71 72 73 74 73 71 71 71 70 70 70 70 69 69 68 67
53 53 51 50 50 51 52 51 52 52 55 58 56 57 56 57 60 61 62 64 64 64 63 64 65 64 64 65 65 70 71 72 72 71 70 69 69 69 69 68 68 66 67
52 52 51 50 50 49 48 50 50 51 52 56 57 57 54 52 56 56 57 58 63 63 63 64 64 64 63 62 65 65 67 69 70 70 69 69 70 69 68 67 67 67 66
52 52 52 51 49 49 47 47 53 51 52 51 55 59 59 58 53 52 54 54 55 59 63 63 63 62 63 62 63 63 65 66 68 69 69 69 69 68 67 67 66 66 65
51 52 52 51 49 48 47 47 49 49 50 51 52 54 57 58 58 54 51 52 54 52 52 58 62 62 61 61 61 62 64 65 66 67 68 68 68 67 66 66 65 64 63
49 50 51 51 50 48 47 47 48 48 48 50 52 54 54 55 56 54 51 51 50 50 51 52 53 60 60 60 62 63 64 65 65 65 65 66 65 65 64 64 63 62 62
46 47 49 48 48 48 48 48 48 48 48 48 50 52 55 56 57 56 53 49 48 50 50 51 51 56 59 60 61 62 63 63 63 62 62 61 61 61 60 60 60 59 59
47 48 48 48 48 49 50 49 49 49 50 52 49 51 54 55 56 55 54 51 47 47 48 46 51 53 57 60 60 60 60 61 60 60 59 58 58 58 58 58 57 57 57
49 48 47 48 49 49 49 48 48 48 52 53 52 53 53 55 56 56 56 54 49 44 45 45 48 51 52 54 56 55 55 58 57 56 56 55 55 56 56 56 55 55 55
48 48 47 48 48 49 48 47 47 50 50 50 52 52 53 53 55 57 56 55 54 49 43 45 46 48 50 50 53 51 52 53 54 53 53 53 53 54 54 54 54 54 54
48 48 49 48 48 47 48 47 47 47 47 49 51 52 52 54 55 57 57 56 53 51 43 43 45 46 45 45 45 47 48 47 49 53 53 53 53 53 53 52 53 52 52
49 49 48 47 46 47 47 47 46 48 49 50 51 52 53 54 53 57 56 55 52 50 45 41 42 42 43 44 44 43 45 48 48 52 52 52 52 52 52 51 51 51 51
48 46 46 46 47 47 47 48 49 49 50 50 51 52 53 54 53 56 54 51 49 49 46 42 39 41 41 42 40 41 42 43 46 48 50 51 52 51 51 51 50 50 50
48 47 47 48 48 47 46 47 48 48 49 50 52 53 54 55 55 55 50 48 47 45 43 41 39 38 38 39 38 35 34 38 38 43 46 46 47 50 49 49 50 49 49
47 47 46 46 47 46 47 47 48 48 48 50 51 53 55 57 59 53 49 46 45 43 41 39 38 37 36 36 34 35 33 34 35 36 33 34 35 34 39 46 47 49 48
46 46 46 46 45 47 49 50 49 49 50 51 52 53 56 58 56 55 53 51 48 43 41 39 37 35 35 34 34 34 33 33 29 33 29 29 30 31 37 42 49 49 49
44 43 43 44 44 46 49 50 51 51 50 51 52 51 51 52 51 49 51 51 50 49 47 42 37 36 34 34 37 36 34 30 27 29 29 27 29 30 34 38 48 48 48
42 42 43 44 45 47 49 51 53 51 50 50 50 49 48 47 48 45 43 42 42 44 44 44 41 40 40 41 40 36 32 26 28 30 29 26 27 28 29 30 45 47 47
42 43 46 50 49 48 52 53 50 48 46 45 46 45 44 44 48 47 42 41 42 42 48 48 47 47 47 45 40 36 32 31 28 28 29 28 27 28 28 29 31 42 45
44 47 47 48 51 49 51 50 48 46 44 44 45 46 48 46 49 48 41 38 34 34 36 37 37 40 42 44 43 33 31 30 28 28 30 29 27 27 28 30 30 32 37

GFSMA_sfc_temp_228.txt.gz
Temp
50 50 51 50 51 53 53 54 56 57 60 63 66 66 67 68 68 68 68 71 74 75 76 78 77 77 77 76 76 75 75 74 74 73 74 73 73 72 72 72 72 72 72
49 50 49 50 50 50 51 52 54 54 57 60 62 65 66 67 68 68 67 68 71 74 76 77 78 77 77 77 76 75 74 74 74 73 73 73 73 72 72 71 72 72 71
50 49 48 48 48 49 50 51 52 53 54 57 57 61 64 67 67 67 66 67 68 71 74 75 77 76 76 76 76 75 74 74 74 73 73 72 72 72 71 71 71 71 70
52 49 48 48 48 49 48 48 48 50 51 53 53 56 60 63 65 66 68 67 66 68 70 73 75 76 76 76 76 76 75 74 73 73 73 72 72 71 71 71 71 70 70
53 50 48 48 48 47 47 47 47 47 48 49 52 55 57 59 62 65 66 68 67 67 67 70 73 74 74 75 76 75 75 74 73 73 72 72 71 71 71 71 70 70 69
52 50 48 48 48 47 46 46 45 47 46 48 52 53 54 57 59 61 64 66 67 66 66 66 68 70 72 74 75 75 75 74 74 73 72 72 72 71 71 71 70 69 69
51 49 48 48 48 46 46 46 45 45 45 47 48 50 53 56 60 62 63 64 66 66 66 66 67 67 69 72 73 73 74 75 74 73 73 72 72 72 71 71 69 68 67
49 49 47 48 48 47 46 45 44 43 44 46 48 48 47 51 56 59 63 63 64 65 65 66 67 67 67 69 68 69 72 75 75 74 73 73 72 72 71 70 68 67 67
49 48 48 47 47 45 46 46 44 43 42 44 45 45 45 45 50 57 60 62 63 63 64 65 65 66 66 66 68 68 68 71 73 73 72 72 72 71 70 68 67 66 66
48 48 49 48 47 46 43 45 47 43 43 42 43 48 48 50 46 49 55 56 57 58 62 63 64 64 65 65 65 65 66 67 68 70 71 72 71 71 69 67 65 65 64
46 48 48 48 46 47 44 44 44 43 44 43 42 42 44 46 49 48 47 53 54 53 54 56 62 63 64 64 64 65 66 66 67 68 69 70 71 69 67 66 65 63 63
45 46 47 47 47 46 44 44 44 43 43 43 44 44 44 43 44 48 49 52 53 51 53 54 55 59 63 63 64 64 65 65 65 66 66 67 68 66 65 64 63 62 62
44 44 45 45 45 46 46 46 43 43 43 43 42 43 45 46 47 48 49 49 50 51 51 52 52 55 59 62 62 63 64 64 64 64 64 63 63 62 61 61 60 60 60
45 46 45 45 46 46 46 46 45 44 44 43 42 43 44 45 48 48 47 49 48 48 48 48 52 52 57 60 61 62 61 63 62 61 61 60 59 59 59 58 58 58 58
46 45 44 44 45 45 45 45 44 43 43 43 43 43 44 46 50 49 49 50 49 46 46 46 49 52 56 57 59 58 58 60 59 58 58 57 57 57 57 57 56 56 56
46 45 45 45 44 45 45 44 43 43 43 43 44 43 45 48 50 50 49 50 52 50 44 46 46 50 51 51 54 53 54 55 56 55 54 53 54 55 55 55 55 54 55
47 45 45 44 44 43 43 42 42 43 42 43 44 44 45 46 47 48 50 51 52 50 44 43 45 47 46 46 46 48 50 49 50 53 53 52 52 53 53 53 53 53 53
46 46 45 44 44 43 43 42 42 45 43 42 43 43 44 47 45 46 49 51 51 49 45 41 42 42 43 44 45 45 46 47 48 52 52 52 52 51 51 51 52 52 52
46 46 45 44 43 44 44 44 44 44 44 44 45 44 44 45 46 48 50 51 50 48 45 42 39 41 40 40 39 40 41 42 47 51 51 51 51 51 51 51 51 51 51
45 45 46 45 45 46 46 46 45 43 45 46 46 47 47 48 48 50 51 50 48 45 43 41 38 37 37 37 38 36 33 35 35 40 45 47 48 49 51 51 50 50 50
45 46 46 46 46 46 47 45 45 45 45 44 45 48 49 51 53 53 50 47 46 43 41 38 35 34 34 35 33 34 32 32 32 33 33 35 38 37 39 43 48 49 49
44 44 43 44 44 46 48 49 48 44 45 44 45 47 49 52 53 56 55 52 48 43 39 37 35 33 32 32 33 33 32 31 29 33 33 32 36 34 35 43 49 48 48
42 42 43 43 43 44 48 49 50 47 45 45 47 48 49 51 53 52 54 53 51 49 46 40 35 33 32 32 32 31 30 30 29 31 34 30 34 33 33 39 47 47 48
44 43 43 44 43 44 48 49 51 48 47 48 48 49 50 51 49 47 44 42 41 41 39 39 36 34 33 32 32 32 31 29 31 32 34 30 31 32 33 32 44 46 46
47 47 46 45 45 47 50 51 48 45 44 44 46 48 48 46 48 46 40 39 40 41 46 44 42 41 41 39 36 34 31 31 30 31 31 33 30 32 32 34 36 41 43
44 45 45 46 48 47 50 50 48 46 44 44 45 46 48 46 47 45 40 38 35 37 38 38 38 39 40 41 41 35 36 32 32 30 32 31 29 30 32 36 31 32 33

GFSMA_sfc_temp_231.txt.gz
Temp
62 62 63 62 62 62 62 62 62 63 64 66 68 69 71 72 73 73 71 70 73 75 77 78 78 77 77 77 77 76 76 76 75 75 74 74 74 73 73 72 72 73 72
62 63 62 62 63 62 62 62 61 61 62 63 65 66 68 70 71 73 72 72 71 73 75 77 78 78 77 77 76 76 76 75 75 75 74 74 74 73 72 72 72 72 72
63 62 62 62 62 62 60 61 61 61 61 62 63 64 65 67 69 71 70 71 72 70 71 74 76 77 77 77 77 76 75 75 75 75 74 74 73 73 72 72 72 72 71
62 61 61 61 61 60 59 59 59 59 59 59 60 62 63 65 67 69 70 72 69 70 72 72 75 76 77 77 76 76 75 75 75 74 74 73 73 73 72 72 72 71 71
62 61 61 61 61 60 59 58 59 57 57 58 59 61 61 61 63 67 68 70 72 70 69 72 71 73 76 77 77 76 75 75 74 74 74 73 73 72 72 72 72 71 70
61 61 60 60 60 59 59 58 56 58 56 57 58 58 59 61 62 63 66 70 70 71 69 69 72 72 73 76 76 76 75 74 74 74 74 73 73 72 72 72 71 71 70
59 59 58 58 58 57 58 57 56 54 56 56 54 56 58 59 61 64 67 68 68 70 69 68 69 72 74 73 74 75 76 75 75 74 73 73 73 72 72 72 71 70 68
58 58 58 58 58 57 57 57 55 53 53 55 53 52 49 54 61 64 65 67 67 66 66 68 67 72 73 74 73 71 72 73 75 73 74 73 73 73 72 71 70 69 68
57 57 57 58 58 57 55 56 56 53 51 55 55 51 46 47 51 59 60 63 65 64 65 66 67 69 73 73 71 70 68 69 71 72 73 73 73 73 72 71 69 69 66
56 56 56 57 57 57 55 55 56 52 52 50 53 55 54 52 46 47 58 56 56 58 63 65 66 67 70 71 70 68 69 68 69 71 71 73 73 72 72 69 68 66 65
54 54 56 57 56 56 55 53 53 53 53 51 52 52 51 51 51 47 46 51 56 57 57 57 64 66 69 68 66 67 67 67 67 68 69 70 70 72 70 68 67 65 64
52 53 53 54 55 55 54 53 53 52 52 52 53 52 50 48 49 49 47 51 50 54 54 55 56 63 66 67 66 65 65 66 66 66 67 68 68 69 68 67 65 64 63
50 51 51 52 53 53 53 53 53 52 52 51 51 51 52 51 52 51 49 48 49 52 56 54 54 56 59 66 65 63 64 65 65 66 66 66 67 66 65 64 63 62 62
51 52 52 52 52 52 52 53 52 52 53 52 51 51 51 52 52 51 49 48 44 51 51 50 54 54 57 62 65 63 65 65 64 64 64 64 64 63 62 61 60 60 59
51 51 51 50 51 51 51 52 51 51 52 52 52 51 51 52 52 52 52 52 47 43 46 51 49 53 56 60 62 62 63 63 63 62 61 61 60 60 59 59 58 58 58
51 50 50 50 50 50 51 50 50 51 50 51 52 50 50 51 51 51 51 53 53 49 45 47 47 50 54 55 58 58 58 59 59 58 58 57 57 56 56 56 56 56 56
50 49 49 49 48 48 49 49 49 49 48 49 50 50 50 51 51 52 52 50 50 52 45 44 45 47 48 50 50 52 53 53 53 56 55 54 54 54 54 54 54 54 54
46 46 47 46 45 45 47 48 47 49 48 47 49 49 49 51 50 50 51 50 52 52 46 42 42 43 45 47 47 47 48 50 50 53 53 52 51 51 52 52 53 53 53
45 44 45 44 44 44 45 47 48 48 49 49 49 49 49 49 48 49 50 50 52 52 47 43 40 40 40 44 40 43 46 47 48 51 51 50 50 50 50 51 52 51 51
44 45 45 46 46 45 45 45 46 46 47 49 49 49 49 48 49 49 50 52 50 45 44 40 38 37 37 39 39 37 34 36 35 40 44 46 47 49 50 50 50 50 50
44 44 44 45 46 46 46 45 46 47 47 47 47 48 49 49 51 51 50 50 46 43 41 39 36 35 33 34 34 36 33 33 32 35 34 36 38 39 42 49 49 49 49
42 42 43 44 44 46 48 49 47 45 45 45 45 46 48 50 52 54 55 52 48 42 40 37 35 34 32 32 32 33 33 32 30 34 33 32 36 36 38 47 49 49 48
44 42 43 43 43 44 47 49 49 47 45 44 44 46 47 50 52 54 54 53 51 49 46 41 34 32 32 32 32 32 31 31 30 32 37 33 39 37 40 44 47 47 47
45 43 43 43 43 45 48 49 50 48 46 46 47 47 48 49 51 47 42 39 39 40 40 38 35 33 33 32 32 32 31 31 33 35 38 32 38 37 41 42 44 45 45
44 44 44 46 47 46 48 50 48 46 45 46 47 48 48 47 48 46 40 38 38 39 44 44 42 42 41 39 37 36 33 33 31 33 39 36 36 38 40 40 42 41 43
43 44 43 44 46 46 50 49 47 45 43 43 44 46 48 46 47 46 41 38 35 36 36 36 36 39 40 40 40 38 36 34 36 36 40 38 39 40 38 42 42 43 44

GFSMA_sfc_temp_234.txt.gz
Temp
69 70 70 70 70 70 70 69 70 70 72 74 75 75 76 77 78 79 74 71 72 72 73 76 78 78 77 76 77 76 76 76 76 76 76 75 74 74 73 73 73 73 73
70 70 70 69 70 70 69 69 68 68 69 71 72 73 74 75 76 77 78 75 71 72 73 76 77 78 78 77 76 76 76 76 76 76 75 75 74 74 73 73 73 73 73
70 69 69 68 69 69 68 69 69 69 68 69 69 71 72 74 74 75 76 77 77 72 71 74 74 76 77 78 77 76 75 75 75 75 75 75 74 74 73 73 72 72 73
69 68 67 67 68 68 67 66 66 65 65 66 67 69 70 72 72 73 74 75 76 77 74 71 73 75 76 77 77 76 75 75 75 75 75 74 74 74 74 73 72 72 72
68 68 67 67 68 67 66 65 65 65 63 64 65 67 68 67 68 71 71 72 73 74 75 72 71 71 73 75 76 76 75 75 74 75 74 74 73 74 73 73 73 72 72
68 67 67 66 67 65 65 65 64 65 64 63 63 64 65 66 67 68 69 72 73 73 74 75 75 73 71 73 75 76 76 75 74 74 74 74 74 74 73 73 73 72 72
65 65 65 66 65 64 64 64 63 61 61 63 60 61 64 66 66 67 69 71 72 74 74 76 76 74 71 72 73 75 77 77 75 74 74 74 74 73 73 73 72 72 71
65 65 64 64 64 63 63 62 62 60 60 62 57 57 53 59 64 67 68 69 72 74 75 76 76 75 72 74 75 72 73 76 76 75 74 73 74 73 73 73 73 71 71
62 62 62 63 63 63 61 61 61 59 57 60 62 57 51 51 57 62 63 66 66 63 67 71 74 73 72 70 73 73 69 72 75 75 74 72 72 73 73 73 72 71 71
60 61 61 62 62 63 62 62 62 60 58 55 59 62 61 59 51 50 60 62 65 64 63 67 67 71 73 68 68 69 69 68 71 73 72 71 71 71 72 73 71 71 69
58 59 60 61 61 62 62 62 61 60 60 58 57 58 59 58 59 53 50 56 62 65 62 65 64 61 66 69 67 69 68 67 68 71 72 71 73 72 73 72 71 69 67
57 58 58 59 59 60 60 60 60 59 59 59 59 58 57 55 55 54 52 54 55 60 61 58 61 62 60 62 67 66 66 66 66 67 69 70 69 71 71 70 69 67 66
54 55 57 57 57 58 58 59 58 58 58 57 58 58 59 58 58 57 54 53 53 58 60 58 58 56 57 58 61 65 64 65 66 67 67 67 67 68 68 67 67 66 65
55 55 55 56 56 57 57 58 57 57 58 57 57 58 58 59 58 57 55 52 50 53 56 57 57 55 56 56 58 62 67 65 65 65 65 66 66 66 66 65 65 64 63
53 53 54 54 54 54 55 55 55 56 57 57 57 57 57 58 59 59 58 56 52 45 50 58 55 55 54 56 58 63 67 64 65 64 64 64 64 65 64 64 62 61 60
50 51 52 52 51 51 52 53 53 54 55 56 57 57 57 58 58 58 55 56 55 51 47 57 57 52 51 54 57 62 63 61 63 63 61 60 61 61 60 60 59 58 58
45 46 48 49 49 49 50 50 50 52 52 54 56 55 55 57 57 57 56 56 50 51 47 52 51 49 51 49 52 55 56 56 57 59 58 57 57 57 57 56 56 55 55
43 44 45 46 46 48 51 49 48 49 50 51 53 54 54 56 55 55 55 55 55 54 49 49 50 44 45 47 49 49 50 52 52 55 55 54 53 53 53 52 52 53 53
44 44 45 44 44 44 45 46 47 48 49 51 52 53 54 54 53 54 54 51 53 55 54 50 41 42 42 42 44 46 47 46 48 52 53 52 52 51 51 51 51 52 52
43 44 45 45 45 45 45 44 44 46 49 50 51 52 52 51 51 51 50 50 53 53 52 44 40 38 38 39 40 38 34 37 38 43 48 49 50 51 50 50 50 50 51
44 44 44 45 46 46 47 45 45 45 46 47 49 50 51 51 53 53 50 49 51 49 43 41 37 35 33 34 33 33 33 32 32 36 36 38 39 41 43 47 48 49 50
44 43 43 44 44 46 48 49 47 46 47 48 48 50 51 51 51 53 53 54 53 44 41 39 37 34 32 32 33 33 33 33 31 33 34 33 37 36 41 43 47 48 49
45 44 43 43 44 46 48 50 50 46 46 45 46 46 47 51 52 53 54 55 52 50 47 41 34 33 32 32 32 32 32 31 31 33 35 33 39 38 42 45 46 47 48
43 43 45 44 44 46 48 49 50 49 46 45 45 46 46 48 51 43 40 38 37 38 38 36 34 32 32 32 32 33 32 32 33 34 38 33 40 40 44 44 45 46 47
42 43 44 45 44 45 48 49 48 47 46 46 47 49 49 48 47 45 39 37 36 37 43 43 42 42 41 39 37 36 34 34 32 34 37 36 38 40 43 43 44 45 45
40 40 43 44 45 42 47 47 44 42 42 43 45 47 48 47 47 45 40 38 35 36 37 37 37 39 40 41 42 39 38 36 35 35 41 38 40 44 39 44 45 47 49

GFSMA_sfc_temp_237.txt.gz
Temp
69 70 71 71 71 71 70 69 69 70 71 73 74 75 75 76 76 74 75 73 73 73 75 75 77 77 78 77 77 76 76 76 76 77 76 75 75 74 74 73 73 73 73
71 70 70 70 70 71 71 69 68 68 69 71 71 73 73 74 75 74 73 73 73 74 74 75 75 76 76 77 77 76 76 75 76 76 76 75 75 74 74 73 73 73 73
71 70 69 69 69 70 69 68 68 69 67 69 69 71 71 73 73 73 73 73 73 73 73 74 74 75 76 77 77 76 75 75 75 75 75 75 75 75 74 73 73 73 73
70 68 67 67 68 68 68 67 66 65 65 65 66 68 69 71 71 71 71 72 72 73 74 73 74 74 75 75 76 76 75 75 75 75 75 75 74 74 74 74 73 73 73
69 68 67 67 68 67 66 66 65 64 63 64 65 66 67 67 67 69 69 69 69 70 70 72 73 72 73 75 75 76 76 75 75 75 74 74 74 74 74 74 73 73 73
68 67 67 66 66 65 64 64 63 64 63 63 64 64 65 65 66 66 67 69 69 68 69 70 70 73 72 72 74 75 76 75 75 74 74 74 74 74 74 74 73 73 73
65 65 65 65 65 64 63 64 62 62 61 63 60 60 62 65 66 66 67 68 68 70 70 70 71 72 73 73 72 74 76 76 76 74 74 74 74 74 74 74 73 73 73
63 64 63 63 64 62 62 62 61 59 60 62 57 57 52 57 63 66 66 66 66 68 70 72 73 73 73 74 73 71 71 75 77 75 74 74 74 74 73 74 73 73 73
61 61 61 62 62 62 60 61 61 59 56 59 61 56 50 50 57 62 62 63 63 63 66 68 68 70 73 74 73 71 69 70 73 75 75 74 74 74 73 73 73 73 73
60 60 60 61 61 61 61 61 63 60 58 55 58 61 60 59 51 50 59 61 62 62 63 64 65 67 69 66 67 69 68 68 70 73 74 75 74 74 73 71 73 73 73
58 59 59 60 59 60 61 61 60 61 60 57 56 57 57 58 59 54 50 55 60 62 63 64 65 64 65 64 63 65 67 67 68 69 72 74 75 73 71 73 72 72 72
54 57 58 58 59 59 59 59 60 59 59 58 58 58 56 54 54 54 52 54 54 58 61 61 62 62 62 63 63 62 63 65 67 68 68 72 73 72 71 73 73 72 71
52 53 55 54 56 57 58 58 58 58 58 57 57 57 58 58 58 57 54 53 52 56 57 61 61 61 61 62 62 61 61 62 66 67 67 68 71 71 72 72 73 71 68
50 53 54 53 54 55 55 57 56 57 57 56 56 57 57 58 58 58 55 52 48 50 54 55 60 62 60 60 60 60 61 61 64 66 66 66 68 70 68 69 69 66 66
45 48 51 52 53 52 53 54 53 53 56 56 56 56 56 57 58 59 58 55 50 44 47 54 55 60 57 57 57 59 59 61 63 65 64 64 66 67 68 67 65 64 64
43 44 45 47 50 51 51 51 51 52 52 53 55 56 56 57 57 57 56 56 54 49 45 54 55 55 53 55 56 56 60 60 62 65 62 63 64 65 65 64 63 61 61
43 43 43 44 46 49 50 49 49 50 50 51 53 53 54 57 56 56 56 54 50 50 45 50 53 54 51 49 51 53 58 60 60 64 62 60 60 60 60 59 59 58 59
43 43 43 43 44 47 48 47 47 49 49 49 50 51 51 56 55 55 55 53 52 53 49 46 49 48 47 47 49 48 51 54 55 59 58 57 57 57 56 55 55 55 54
43 44 44 43 44 44 44 45 47 48 49 49 50 51 51 52 54 54 55 53 53 54 52 49 48 43 42 43 41 43 46 49 51 54 54 54 54 53 53 52 52 52 52
44 44 44 45 45 44 45 44 44 44 48 49 50 50 50 52 54 54 54 53 53 49 48 48 41 38 38 39 39 36 35 37 40 46 50 51 51 52 52 51 51 50 50
45 45 45 45 46 46 46 45 45 44 43 46 49 50 50 51 54 54 52 50 48 46 46 43 37 36 34 33 32 32 32 33 33 38 38 39 41 43 45 48 49 50 50
45 45 44 45 45 47 49 49 47 46 45 46 46 48 51 51 52 53 54 54 51 46 45 40 37 34 32 32 32 32 33 35 32 34 35 33 38 38 41 44 48 48 48
44 45 44 44 44 46 48 50 50 46 46 46 47 48 48 51 50 49 51 51 52 54 49 43 35 33 32 32 32 32 32 32 31 32 36 32 36 36 40 43 46 47 48
41 42 44 44 45 46 48 50 51 48 46 46 45 45 45 47 50 42 39 37 36 36 38 37 34 32 32 32 32 32 32 32 32 32 34 31 34 34 38 41 46 46 46
39 38 43 43 42 44 48 49 48 47 46 45 46 46 47 47 47 44 38 36 36 37 42 42 42 41 41 39 37 35 32 32 31 32 35 34 35 35 38 39 43 46 46
41 40 38 41 45 42 45 45 43 42 40 40 41 46 48 45 45 42 36 34 31 32 34 34 35 38 39 40 41 37 35 32 32 32 37 35 36 39 35 41 43 45 45